Wetterdaten: Woche 09.11.15 - 15.11.15 (KW46)
Datum Zeit Temp. I. Temp. A. Feuchte I. Feuchte A. Luftdruck Regen Wind Richtung Sonnenschein UV Solar Taupunkt Windchill Windben
09.11.2015 00:00 24,0 C 9,8 C 58 % 97 % 1023,7 hPa 0,0 l/m 1,7 km/h (1 Bft) S 0,00 h 0,0 UV-I 0 W/m 9,3 C 9,7 C 4,3 km/h (1 Bft)
09.11.2015 01:00 23,8 C 10,8 C 58 % 97 % 1023,1 hPa 0,0 l/m 2,6 km/h (1 Bft) S 0,00 h 0,0 UV-I 0 W/m 10,4 C 10,8 C 6,5 km/h (2 Bft)
09.11.2015 02:00 23,7 C 10,8 C 58 % 97 % 1022,7 hPa 0,0 l/m 2,0 km/h (1 Bft) S-SW 0,00 h 0,0 UV-I 0 W/m 10,3 C 10,7 C 5,5 km/h (1 Bft)
09.11.2015 03:00 23,6 C 10,9 C 57 % 98 % 1022,5 hPa 0,0 l/m 1,4 km/h (1 Bft) S 0,00 h 0,0 UV-I 0 W/m 10,6 C 10,9 C 4,5 km/h (1 Bft)
09.11.2015 04:00 23,5 C 11,0 C 57 % 98 % 1022,1 hPa 0,0 l/m 3,6 km/h (1 Bft) S 0,00 h 0,0 UV-I 0 W/m 10,7 C 10,9 C 8,6 km/h (2 Bft)
09.11.2015 05:00 23,5 C 11,1 C 57 % 98 % 1022,4 hPa 0,0 l/m 0,6 km/h (0 Bft) S 0,00 h 0,0 UV-I 0 W/m 10,8 C 11,1 C 2,5 km/h (1 Bft)
09.11.2015 06:00 23,4 C 11,3 C 57 % 98 % 1022,4 hPa 0,0 l/m 0,3 km/h (0 Bft) S 0,00 h 0,0 UV-I 0 W/m 11,0 C 11,3 C 1,0 km/h (0 Bft)
09.11.2015 07:00 23,5 C 11,5 C 57 % 98 % 1022,6 hPa 0,0 l/m 2,5 km/h (1 Bft) S-SW 0,00 h 0,0 UV-I 6 W/m 11,2 C 11,5 C 6,7 km/h (2 Bft)
09.11.2015 08:00 23,9 C 11,7 C 58 % 96 % 1022,4 hPa 0,0 l/m 3,9 km/h (1 Bft) S 0,00 h 0,0 UV-I 12 W/m 11,1 C 11,4 C 8,4 km/h (2 Bft)
09.11.2015 09:00 24,0 C 12,0 C 58 % 95 % 1023,2 hPa 0,0 l/m 3,7 km/h (1 Bft) SW 0,00 h 0,0 UV-I 22 W/m 11,2 C 12,0 C 8,4 km/h (2 Bft)
09.11.2015 10:00 23,9 C 12,6 C 57 % 93 % 1023,1 hPa 0,0 l/m 4,7 km/h (1 Bft) SW 0,00 h 0,5 UV-I 44 W/m 11,6 C 12,4 C 10,1 km/h (2 Bft)
09.11.2015 11:00 23,7 C 12,9 C 56 % 93 % 1023,0 hPa 0,0 l/m 3,5 km/h (1 Bft) W-SW 0,00 h 0,0 UV-I 19 W/m 11,8 C 12,9 C 8,3 km/h (2 Bft)
09.11.2015 12:00 23,8 C 13,9 C 57 % 91 % 1023,0 hPa 0,0 l/m 5,2 km/h (1 Bft) W-SW 0,00 h 0,5 UV-I 36 W/m 12,4 C 13,5 C 11,7 km/h (2 Bft)
09.11.2015 13:00 23,4 C 14,7 C 54 % 87 % 1022,7 hPa 0,0 l/m 6,2 km/h (2 Bft) W-SW 0,10 h 0,6 UV-I 78 W/m 12,5 C 14,1 C 13,8 km/h (3 Bft)
09.11.2015 14:00 23,6 C 15,2 C 55 % 83 % 1022,4 hPa 0,0 l/m 9,4 km/h (2 Bft) W-SW 0,00 h 0,5 UV-I 63 W/m 12,4 C 13,6 C 18,3 km/h (3 Bft)
09.11.2015 15:00 23,9 C 15,1 C 55 % 82 % 1022,7 hPa 0,0 l/m 11,2 km/h (2 Bft) W-SW 0,00 h 0,0 UV-I 13 W/m 12,0 C 12,7 C 20,3 km/h (4 Bft)
09.11.2015 16:00 23,8 C 14,9 C 55 % 78 % 1023,1 hPa 0,0 l/m 11,0 km/h (2 Bft) W 0,00 h 0,0 UV-I 9 W/m 11,2 C 12,6 C 19,0 km/h (3 Bft)
09.11.2015 17:00 24,0 C 14,5 C 55 % 77 % 1023,4 hPa 0,0 l/m 4,8 km/h (1 Bft) W-SW 0,00 h 0,0 UV-I 0 W/m 10,5 C 13,9 C 9,7 km/h (2 Bft)
09.11.2015 18:00 24,3 C 14,1 C 56 % 78 % 1023,8 hPa 0,0 l/m 5,1 km/h (1 Bft) W-SW 0,00 h 0,0 UV-I 0 W/m 10,3 C 13,6 C 11,3 km/h (2 Bft)
09.11.2015 19:00 24,3 C 13,8 C 56 % 80 % 1023,7 hPa 0,0 l/m 8,5 km/h (2 Bft) W 0,00 h 0,0 UV-I 0 W/m 10,4 C 12,2 C 15,4 km/h (3 Bft)
09.11.2015 20:00 24,2 C 13,6 C 55 % 79 % 1023,5 hPa 0,0 l/m 14,1 km/h (3 Bft) W 0,00 h 0,0 UV-I 0 W/m 10,0 C 9,9 C 22,7 km/h (4 Bft)
09.11.2015 21:00 24,0 C 13,4 C 54 % 79 % 1023,6 hPa 0,0 l/m 15,2 km/h (3 Bft) W 0,00 h 0,0 UV-I 0 W/m 9,9 C 9,3 C 24,8 km/h (4 Bft)
09.11.2015 22:00 24,3 C 13,1 C 54 % 79 % 1023,9 hPa 0,0 l/m 13,3 km/h (3 Bft) W 0,00 h 0,0 UV-I 0 W/m 9,6 C 9,7 C 21,2 km/h (4 Bft)
09.11.2015 23:00 24,0 C 13,0 C 55 % 77 % 1023,8 hPa 0,0 l/m 11,2 km/h (2 Bft) W 0,00 h 0,0 UV-I 0 W/m 9,1 C 10,3 C 18,6 km/h (3 Bft)
10.11.2015 00:00 23,8 C 12,8 C 55 % 77 % 1023,6 hPa 0,0 l/m 10,0 km/h (2 Bft) W-SW 0,00 h 0,0 UV-I 0 W/m 8,9 C 10,6 C 17,6 km/h (3 Bft)
10.11.2015 01:00 23,7 C 12,7 C 55 % 77 % 1023,3 hPa 0,0 l/m 11,3 km/h (2 Bft) W-SW 0,00 h 0,0 UV-I 0 W/m 8,8 C 10,1 C 18,6 km/h (3 Bft)
10.11.2015 02:00 23,6 C 12,5 C 55 % 77 % 1023,2 hPa 0,0 l/m 8,3 km/h (2 Bft) W-SW 0,00 h 0,0 UV-I 0 W/m 8,5 C 10,8 C 14,8 km/h (3 Bft)
10.11.2015 03:00 23,5 C 12,2 C 55 % 75 % 1022,6 hPa 0,0 l/m 9,1 km/h (2 Bft) W-SW 0,00 h 0,0 UV-I 0 W/m 8,0 C 10,4 C 17,2 km/h (3 Bft)
10.11.2015 04:00 23,4 C 12,0 C 55 % 74 % 1022,6 hPa 0,0 l/m 11,3 km/h (2 Bft) W 0,00 h 0,0 UV-I 0 W/m 7,6 C 9,3 C 19,4 km/h (3 Bft)
10.11.2015 05:00 23,4 C 11,8 C 55 % 74 % 1022,8 hPa 0,0 l/m 6,5 km/h (2 Bft) W-SW 0,00 h 0,0 UV-I 0 W/m 7,4 C 10,4 C 11,6 km/h (2 Bft)
10.11.2015 06:00 23,4 C 11,6 C 55 % 76 % 1022,9 hPa 0,0 l/m 4,0 km/h (1 Bft) S 0,00 h 0,0 UV-I 0 W/m 7,6 C 11,4 C 9,2 km/h (2 Bft)
10.11.2015 07:00 23,4 C 11,6 C 55 % 78 % 1023,2 hPa 0,0 l/m 5,6 km/h (1 Bft) SW 0,00 h 0,0 UV-I 13 W/m 7,8 C 11,0 C 11,6 km/h (2 Bft)
10.11.2015 08:00 23,6 C 11,8 C 56 % 77 % 1023,6 hPa 0,0 l/m 5,5 km/h (1 Bft) SW 0,00 h 0,0 UV-I 33 W/m 7,9 C 11,2 C 11,3 km/h (2 Bft)
10.11.2015 09:00 23,6 C 12,2 C 55 % 75 % 1023,6 hPa 0,0 l/m 4,1 km/h (1 Bft) W-SW 0,00 h 0,5 UV-I 74 W/m 7,9 C 11,7 C 8,7 km/h (2 Bft)
10.11.2015 10:00 23,4 C 12,6 C 54 % 74 % 1023,6 hPa 0,0 l/m 7,4 km/h (2 Bft) W-SW 0,00 h 0,6 UV-I 85 W/m 8,1 C 11,5 C 13,6 km/h (3 Bft)
10.11.2015 11:00 23,4 C 12,8 C 52 % 75 % 1023,6 hPa 0,0 l/m 5,3 km/h (1 Bft) SW 0,00 h 0,5 UV-I 59 W/m 8,4 C 11,9 C 11,1 km/h (2 Bft)
10.11.2015 12:00 23,4 C 12,8 C 51 % 77 % 1023,5 hPa 0,0 l/m 5,4 km/h (1 Bft) S 0,00 h 0,0 UV-I 31 W/m 8,8 C 12,0 C 11,6 km/h (2 Bft)
10.11.2015 13:00 23,5 C 12,8 C 51 % 80 % 1023,3 hPa 0,0 l/m 3,2 km/h (1 Bft) S-SW 0,00 h 0,5 UV-I 43 W/m 9,4 C 12,4 C 7,2 km/h (2 Bft)
10.11.2015 14:00 23,6 C 13,0 C 52 % 78 % 1022,8 hPa 0,0 l/m 4,0 km/h (1 Bft) W-SW 0,00 h 0,0 UV-I 41 W/m 9,3 C 12,5 C 8,8 km/h (2 Bft)
10.11.2015 15:00 24,0 C 13,1 C 52 % 78 % 1022,9 hPa 0,0 l/m 3,4 km/h (1 Bft) W-SW 0,00 h 0,0 UV-I 14 W/m 9,4 C 12,6 C 7,2 km/h (2 Bft)
10.11.2015 16:00 24,1 C 12,9 C 53 % 79 % 1022,9 hPa 0,0 l/m 13,3 km/h (3 Bft) W 0,00 h 0,0 UV-I 9 W/m 9,4 C 9,4 C 20,6 km/h (4 Bft)
10.11.2015 17:00 23,9 C 12,5 C 53 % 81 % 1022,8 hPa 0,0 l/m 5,5 km/h (1 Bft) W-SW 0,00 h 0,0 UV-I 0 W/m 9,4 C 11,9 C 12,3 km/h (3 Bft)
10.11.2015 18:00 24,0 C 12,4 C 54 % 82 % 1023,2 hPa 0,0 l/m 2,0 km/h (1 Bft) W-SW 0,00 h 0,0 UV-I 0 W/m 9,5 C 12,2 C 5,1 km/h (1 Bft)
10.11.2015 19:00 24,2 C 12,3 C 55 % 84 % 1023,6 hPa 0,0 l/m 1,9 km/h (1 Bft) W-SW 0,00 h 0,0 UV-I 0 W/m 9,7 C 12,3 C 5,5 km/h (1 Bft)
10.11.2015 20:00 24,3 C 12,2 C 57 % 85 % 1023,9 hPa 0,0 l/m 0,2 km/h (0 Bft) W-SW 0,00 h 0,0 UV-I 0 W/m 9,7 C 12,2 C 0,7 km/h (0 Bft)
10.11.2015 21:00 24,4 C 11,9 C 57 % 86 % 1024,0 hPa 0,0 l/m 1,5 km/h (1 Bft) S 0,00 h 0,0 UV-I 0 W/m 9,6 C 11,9 C 3,6 km/h (1 Bft)
10.11.2015 22:00 24,2 C 11,8 C 56 % 87 % 1024,1 hPa 0,0 l/m 1,5 km/h (1 Bft) S 0,00 h 0,0 UV-I 0 W/m 9,7 C 11,8 C 3,7 km/h (1 Bft)
10.11.2015 23:00 23,9 C 11,7 C 56 % 87 % 1024,0 hPa 0,0 l/m 1,4 km/h (1 Bft) W-SW 0,00 h 0,0 UV-I 0 W/m 9,6 C 11,7 C 3,7 km/h (1 Bft)
11.11.2015 00:00 23,8 C 11,7 C 56 % 87 % 1024,1 hPa 0,0 l/m 1,4 km/h (1 Bft) S 0,00 h 0,0 UV-I 0 W/m 9,6 C 11,7 C 4,1 km/h (1 Bft)
11.11.2015 01:00 23,7 C 11,6 C 56 % 88 % 1023,9 hPa 0,0 l/m 3,1 km/h (1 Bft) SW 0,00 h 0,0 UV-I 0 W/m 9,7 C 11,6 C 7,1 km/h (2 Bft)
11.11.2015 02:00 23,6 C 11,6 C 56 % 89 % 1023,8 hPa 0,0 l/m 3,9 km/h (1 Bft) W-SW 0,00 h 0,0 UV-I 0 W/m 9,9 C 11,4 C 8,9 km/h (2 Bft)
11.11.2015 03:00 23,5 C 11,6 C 56 % 91 % 1023,7 hPa 0,0 l/m 1,6 km/h (1 Bft) W-SW 0,00 h 0,0 UV-I 0 W/m 10,1 C 11,6 C 4,6 km/h (1 Bft)
11.11.2015 04:00 23,4 C 11,6 C 56 % 91 % 1023,6 hPa 0,0 l/m 2,9 km/h (1 Bft) W-SW 0,00 h 0,0 UV-I 0 W/m 10,3 C 11,5 C 6,5 km/h (2 Bft)
11.11.2015 05:00 23,4 C 11,5 C 56 % 92 % 1023,9 hPa 0,0 l/m 2,0 km/h (1 Bft) SW 0,00 h 0,0 UV-I 0 W/m 10,3 C 11,5 C 5,1 km/h (1 Bft)
11.11.2015 06:00 23,4 C 11,4 C 56 % 92 % 1024,0 hPa 0,0 l/m 4,2 km/h (1 Bft) W-SW 0,00 h 0,0 UV-I 0 W/m 10,2 C 11,3 C 8,5 km/h (2 Bft)
11.11.2015 07:00 23,5 C 11,3 C 57 % 92 % 1024,1 hPa 0,0 l/m 3,4 km/h (1 Bft) W-SW 0,00 h 0,0 UV-I 8 W/m 10,1 C 11,1 C 8,3 km/h (2 Bft)
11.11.2015 08:00 23,7 C 11,3 C 57 % 93 % 1024,6 hPa 0,0 l/m 4,1 km/h (1 Bft) W-SW 0,00 h 0,0 UV-I 24 W/m 10,2 C 11,2 C 9,2 km/h (2 Bft)
11.11.2015 09:00 24,1 C 11,3 C 58 % 93 % 1025,0 hPa 0,0 l/m 2,6 km/h (1 Bft) W-SW 0,00 h 0,0 UV-I 34 W/m 10,3 C 11,3 C 5,8 km/h (1 Bft)
11.11.2015 10:00 23,9 C 11,5 C 56 % 94 % 1025,3 hPa 0,0 l/m 3,0 km/h (1 Bft) W-SW 0,00 h 0,0 UV-I 39 W/m 10,6 C 11,4 C 6,5 km/h (2 Bft)
11.11.2015 11:00 24,0 C 11,7 C 57 % 92 % 1025,4 hPa 0,0 l/m 3,8 km/h (1 Bft) W-SW 0,00 h 0,5 UV-I 56 W/m 10,5 C 11,6 C 8,8 km/h (2 Bft)
11.11.2015 12:00 23,9 C 11,9 C 56 % 91 % 1025,3 hPa 0,0 l/m 3,9 km/h (1 Bft) W-SW 0,00 h 0,5 UV-I 65 W/m 10,6 C 11,8 C 8,0 km/h (2 Bft)
11.11.2015 13:00 24,1 C 12,8 C 57 % 88 % 1024,7 hPa 0,0 l/m 2,5 km/h (1 Bft) W-SW 0,00 h 0,6 UV-I 104 W/m 10,9 C 12,8 C 5,7 km/h (1 Bft)
11.11.2015 14:00 24,4 C 13,1 C 57 % 87 % 1024,2 hPa 0,0 l/m 2,2 km/h (1 Bft) SW 0,00 h 0,5 UV-I 37 W/m 10,9 C 13,1 C 5,8 km/h (2 Bft)
11.11.2015 15:00 24,5 C 12,8 C 58 % 87 % 1024,2 hPa 0,0 l/m 2,7 km/h (1 Bft) W-SW 0,00 h 0,0 UV-I 45 W/m 10,7 C 12,8 C 5,6 km/h (1 Bft)
11.11.2015 16:00 24,4 C 12,4 C 58 % 86 % 1024,1 hPa 0,0 l/m 0,3 km/h (0 Bft) W 0,00 h 0,0 UV-I 17 W/m 10,2 C 12,4 C 0,8 km/h (0 Bft)
11.11.2015 17:00 24,2 C 11,0 C 56 % 88 % 1024,4 hPa 0,0 l/m 0,0 km/h (0 Bft) N 0,00 h 0,0 UV-I 0 W/m 9,1 C 11,0 C 0,0 km/h (0 Bft)
11.11.2015 18:00 24,5 C 9,4 C 59 % 90 % 1024,5 hPa 0,0 l/m 0,0 km/h (0 Bft) N 0,00 h 0,0 UV-I 0 W/m 7,7 C 9,4 C 0,0 km/h (0 Bft)
11.11.2015 19:00 24,6 C 8,1 C 59 % 92 % 1024,3 hPa 0,0 l/m 0,0 km/h (0 Bft) N 0,00 h 0,0 UV-I 0 W/m 6,9 C 8,1 C 0,0 km/h (0 Bft)
11.11.2015 20:00 24,6 C 7,4 C 59 % 94 % 1024,3 hPa 0,0 l/m 0,0 km/h (0 Bft) N 0,00 h 0,0 UV-I 0 W/m 6,4 C 7,4 C 0,0 km/h (0 Bft)
11.11.2015 21:00 24,7 C 7,1 C 59 % 94 % 1024,8 hPa 0,0 l/m 0,0 km/h (0 Bft) N 0,00 h 0,0 UV-I 0 W/m 6,2 C 7,1 C 0,0 km/h (0 Bft)
11.11.2015 22:00 24,6 C 6,0 C 59 % 93 % 1025,1 hPa 0,0 l/m 0,0 km/h (0 Bft) N 0,00 h 0,0 UV-I 0 W/m 5,0 C 6,0 C 0,0 km/h (0 Bft)
11.11.2015 23:00 24,2 C 6,7 C 59 % 96 % 1025,0 hPa 0,0 l/m 0,0 km/h (0 Bft) S 0,00 h 0,0 UV-I 0 W/m 6,1 C 6,7 C 0,2 km/h (0 Bft)
12.11.2015 00:00 24,0 C 6,5 C 59 % 95 % 1024,9 hPa 0,0 l/m 0,0 km/h (0 Bft) N 0,00 h 0,0 UV-I 0 W/m 5,8 C 6,5 C 0,0 km/h (0 Bft)
12.11.2015 01:00 23,8 C 6,0 C 58 % 95 % 1024,9 hPa 0,0 l/m 0,1 km/h (0 Bft) SW 0,00 h 0,0 UV-I 0 W/m 5,3 C 6,0 C 0,3 km/h (0 Bft)
12.11.2015 02:00 23,8 C 6,4 C 58 % 96 % 1025,2 hPa 0,0 l/m 0,9 km/h (0 Bft) SW 0,00 h 0,0 UV-I 0 W/m 5,8 C 6,4 C 3,7 km/h (1 Bft)
12.11.2015 03:00 23,7 C 6,7 C 58 % 95 % 1025,1 hPa 0,0 l/m 1,5 km/h (1 Bft) S 0,00 h 0,0 UV-I 0 W/m 6,0 C 6,7 C 4,3 km/h (1 Bft)
12.11.2015 04:00 23,6 C 7,1 C 58 % 92 % 1025,6 hPa 0,0 l/m 3,5 km/h (1 Bft) W-SW 0,00 h 0,0 UV-I 0 W/m 5,9 C 6,8 C 7,6 km/h (2 Bft)
12.11.2015 05:00 23,6 C 7,5 C 58 % 91 % 1026,0 hPa 0,0 l/m 5,1 km/h (1 Bft) W 0,00 h 0,0 UV-I 0 W/m 6,1 C 6,7 C 10,7 km/h (2 Bft)
12.11.2015 06:00 23,7 C 7,6 C 58 % 91 % 1026,5 hPa 0,0 l/m 1,7 km/h (1 Bft) W 0,00 h 0,0 UV-I 0 W/m 6,2 C 7,5 C 4,6 km/h (1 Bft)
12.11.2015 07:00 23,8 C 7,7 C 57 % 91 % 1026,8 hPa 0,0 l/m 0,5 km/h (0 Bft) W-NW 0,00 h 0,0 UV-I 13 W/m 6,3 C 7,7 C 1,5 km/h (1 Bft)
12.11.2015 08:00 23,9 C 7,9 C 57 % 91 % 1027,2 hPa 0,0 l/m 0,5 km/h (0 Bft) S 0,00 h 0,0 UV-I 38 W/m 6,5 C 7,9 C 1,7 km/h (1 Bft)
12.11.2015 09:00 23,8 C 8,3 C 57 % 91 % 1027,7 hPa 0,0 l/m 1,8 km/h (1 Bft) S 0,00 h 0,5 UV-I 54 W/m 6,9 C 8,3 C 4,2 km/h (1 Bft)
12.11.2015 10:00 23,8 C 8,9 C 57 % 90 % 1027,8 hPa 0,0 l/m 3,7 km/h (1 Bft) S-SW 0,00 h 0,6 UV-I 78 W/m 7,3 C 8,9 C 8,4 km/h (2 Bft)
12.11.2015 11:00 23,8 C 9,2 C 56 % 89 % 1028,2 hPa 0,0 l/m 1,5 km/h (1 Bft) W-SW 0,00 h 0,5 UV-I 51 W/m 7,5 C 9,2 C 4,1 km/h (1 Bft)
12.11.2015 12:00 23,7 C 9,4 C 55 % 89 % 1028,1 hPa 0,0 l/m 1,5 km/h (1 Bft) W-SW 0,00 h 0,5 UV-I 44 W/m 7,6 C 9,4 C 3,7 km/h (1 Bft)
12.11.2015 13:00 23,4 C 9,6 C 53 % 89 % 1027,9 hPa 0,0 l/m 1,8 km/h (1 Bft) SW 0,00 h 0,5 UV-I 60 W/m 7,9 C 9,6 C 4,5 km/h (1 Bft)
12.11.2015 14:00 22,7 C 9,8 C 53 % 89 % 1027,7 hPa 0,0 l/m 0,6 km/h (0 Bft) W-SW 0,00 h 0,0 UV-I 46 W/m 8,1 C 9,8 C 2,0 km/h (1 Bft)
12.11.2015 15:00 23,3 C 10,0 C 55 % 89 % 1027,7 hPa 0,0 l/m 0,1 km/h (0 Bft) SW 0,00 h 0,0 UV-I 27 W/m 8,3 C 10,0 C 0,5 km/h (0 Bft)
12.11.2015 16:00 23,9 C 9,9 C 54 % 89 % 1027,8 hPa 0,0 l/m 0,0 km/h (0 Bft) N 0,00 h 0,0 UV-I 10 W/m 8,2 C 9,9 C 0,0 km/h (0 Bft)
12.11.2015 17:00 24,0 C 9,7 C 54 % 90 % 1027,9 hPa 0,0 l/m 0,0 km/h (0 Bft) N 0,00 h 0,0 UV-I 0 W/m 8,1 C 9,7 C 0,0 km/h (0 Bft)
12.11.2015 18:00 24,2 C 9,6 C 55 % 91 % 1028,0 hPa 0,0 l/m 0,0 km/h (0 Bft) N 0,00 h 0,0 UV-I 0 W/m 8,2 C 9,6 C 0,0 km/h (0 Bft)
12.11.2015 19:00 24,6 C 9,4 C 57 % 91 % 1027,9 hPa 0,0 l/m 0,1 km/h (0 Bft) O 0,00 h 0,0 UV-I 0 W/m 8,0 C 9,4 C 0,2 km/h (0 Bft)
12.11.2015 20:00 24,6 C 9,3 C 57 % 92 % 1027,6 hPa 0,0 l/m 0,0 km/h (0 Bft) N 0,00 h 0,0 UV-I 0 W/m 8,0 C 9,3 C 0,0 km/h (0 Bft)
12.11.2015 21:00 24,3 C 9,2 C 55 % 92 % 1027,2 hPa 0,0 l/m 0,0 km/h (0 Bft) N 0,00 h 0,0 UV-I 0 W/m 7,9 C 9,2 C 0,0 km/h (0 Bft)
12.11.2015 22:00 24,5 C 9,1 C 56 % 93 % 1026,8 hPa 0,0 l/m 0,0 km/h (0 Bft) N 0,00 h 0,0 UV-I 0 W/m 8,0 C 9,1 C 0,0 km/h (0 Bft)
12.11.2015 23:00 24,3 C 8,9 C 56 % 93 % 1026,4 hPa 0,0 l/m 0,4 km/h (0 Bft) S-SO 0,00 h 0,0 UV-I 0 W/m 7,8 C 8,9 C 0,8 km/h (0 Bft)
13.11.2015 00:00 24,0 C 9,1 C 56 % 91 % 1026,0 hPa 0,0 l/m 0,3 km/h (0 Bft) S-SO 0,00 h 0,0 UV-I 0 W/m 7,6 C 9,1 C 0,7 km/h (0 Bft)
13.11.2015 01:00 23,8 C 9,0 C 56 % 89 % 1025,7 hPa 0,0 l/m 0,0 km/h (0 Bft) N 0,00 h 0,0 UV-I 0 W/m 7,3 C 9,0 C 0,0 km/h (0 Bft)
13.11.2015 02:00 23,7 C 7,9 C 56 % 90 % 1025,2 hPa 0,0 l/m 0,0 km/h (0 Bft) N 0,00 h 0,0 UV-I 0 W/m 6,3 C 7,9 C 0,1 km/h (0 Bft)
13.11.2015 03:00 23,6 C 6,4 C 56 % 91 % 1024,8 hPa 0,0 l/m 0,0 km/h (0 Bft) N 0,00 h 0,0 UV-I 0 W/m 4,9 C 6,4 C 0,0 km/h (0 Bft)
13.11.2015 04:00 23,6 C 4,9 C 56 % 90 % 1024,7 hPa 0,0 l/m 0,0 km/h (0 Bft) N 0,00 h 0,0 UV-I 0 W/m 3,4 C 4,9 C 0,0 km/h (0 Bft)
13.11.2015 05:00 23,4 C 3,5 C 56 % 91 % 1024,8 hPa 0,0 l/m 0,0 km/h (0 Bft) N 0,00 h 0,0 UV-I 0 W/m 2,2 C 3,5 C 0,0 km/h (0 Bft)
13.11.2015 06:00 23,4 C 2,6 C 56 % 93 % 1025,0 hPa 0,0 l/m 0,0 km/h (0 Bft) N 0,00 h 0,0 UV-I 0 W/m 1,5 C 2,6 C 0,0 km/h (0 Bft)
13.11.2015 07:00 23,4 C 2,5 C 56 % 94 % 1025,2 hPa 0,0 l/m 0,0 km/h (0 Bft) N 0,00 h 0,0 UV-I 12 W/m 1,7 C 2,5 C 0,0 km/h (0 Bft)
13.11.2015 08:00 23,7 C 3,8 C 57 % 96 % 1025,5 hPa 0,0 l/m 0,2 km/h (0 Bft) SW 0,00 h 0,0 UV-I 27 W/m 3,3 C 3,8 C 0,5 km/h (0 Bft)
13.11.2015 09:00 23,7 C 5,2 C 55 % 97 % 1025,7 hPa 0,0 l/m 4,8 km/h (1 Bft) S 0,00 h 0,0 UV-I 52 W/m 4,8 C 4,7 C 10,3 km/h (2 Bft)
13.11.2015 10:00 24,0 C 5,7 C 56 % 97 % 1026,0 hPa 0,0 l/m 4,0 km/h (1 Bft) S 0,00 h 0,0 UV-I 56 W/m 5,2 C 5,5 C 8,0 km/h (2 Bft)
13.11.2015 11:00 24,0 C 6,0 C 55 % 97 % 1025,8 hPa 0,0 l/m 3,5 km/h (1 Bft) S 0,00 h 0,5 UV-I 57 W/m 5,5 C 6,0 C 8,1 km/h (2 Bft)
13.11.2015 12:00 23,6 C 6,7 C 53 % 96 % 1025,5 hPa 0,0 l/m 1,4 km/h (1 Bft) S 0,00 h 0,5 UV-I 55 W/m 6,1 C 6,7 C 3,9 km/h (1 Bft)
13.11.2015 13:00 23,8 C 8,3 C 52 % 93 % 1024,9 hPa 0,0 l/m 1,6 km/h (1 Bft) S 0,00 h 0,5 UV-I 81 W/m 7,2 C 8,2 C 4,1 km/h (1 Bft)
13.11.2015 14:00 23,9 C 10,1 C 53 % 87 % 1024,4 hPa 0,0 l/m 4,9 km/h (1 Bft) SW 0,13 h 0,6 UV-I 104 W/m 8,0 C 9,8 C 9,5 km/h (2 Bft)
13.11.2015 15:00 24,1 C 10,3 C 53 % 85 % 1024,3 hPa 0,0 l/m 2,8 km/h (1 Bft) SW 0,00 h 0,0 UV-I 16 W/m 7,9 C 10,3 C 7,3 km/h (2 Bft)
13.11.2015 16:00 24,3 C 9,8 C 54 % 87 % 1024,1 hPa 0,0 l/m 2,9 km/h (1 Bft) S 0,00 h 0,0 UV-I 6 W/m 7,7 C 9,8 C 7,2 km/h (2 Bft)
13.11.2015 17:00 24,3 C 9,2 C 55 % 88 % 1024,0 hPa 0,0 l/m 3,9 km/h (1 Bft) S 0,00 h 0,0 UV-I 0 W/m 7,3 C 9,0 C 8,8 km/h (2 Bft)
13.11.2015 18:00 24,3 C 8,6 C 54 % 90 % 1023,8 hPa 0,0 l/m 2,9 km/h (1 Bft) S 0,00 h 0,0 UV-I 0 W/m 7,0 C 8,5 C 7,4 km/h (2 Bft)
13.11.2015 19:00 24,4 C 8,8 C 55 % 90 % 1023,4 hPa 0,0 l/m 4,8 km/h (1 Bft) S 0,00 h 0,0 UV-I 0 W/m 7,2 C 8,4 C 10,3 km/h (2 Bft)
13.11.2015 20:00 24,5 C 8,9 C 55 % 90 % 1023,1 hPa 0,0 l/m 5,7 km/h (1 Bft) S 0,00 h 0,0 UV-I 0 W/m 7,4 C 8,3 C 12,1 km/h (2 Bft)
13.11.2015 21:00 24,3 C 8,7 C 54 % 92 % 1022,9 hPa 0,0 l/m 5,5 km/h (1 Bft) S 0,00 h 0,0 UV-I 0 W/m 7,5 C 8,2 C 11,6 km/h (2 Bft)
13.11.2015 22:00 24,4 C 9,0 C 54 % 93 % 1022,4 hPa 0,2 l/m 5,8 km/h (2 Bft) S 0,00 h 0,0 UV-I 0 W/m 7,8 C 8,6 C 11,8 km/h (2 Bft)
13.11.2015 23:00 23,9 C 8,0 C 54 % 92 % 1023,1 hPa 3,2 l/m 11,9 km/h (2 Bft) W 0,00 h 0,0 UV-I 0 W/m 6,8 C 4,4 C 20,4 km/h (4 Bft)
14.11.2015 00:00 23,7 C 7,1 C 54 % 91 % 1024,0 hPa 0,0 l/m 6,3 km/h (2 Bft) NW 0,00 h 0,0 UV-I 0 W/m 5,8 C 5,7 C 11,1 km/h (2 Bft)
14.11.2015 01:00 23,6 C 6,5 C 54 % 89 % 1024,8 hPa 0,0 l/m 7,5 km/h (2 Bft) W 0,00 h 0,0 UV-I 0 W/m 4,9 C 4,9 C 13,4 km/h (3 Bft)
14.11.2015 02:00 23,5 C 5,7 C 56 % 87 % 1025,8 hPa 0,0 l/m 9,1 km/h (2 Bft) W 0,00 h 0,0 UV-I 0 W/m 3,7 C 3,5 C 15,1 km/h (3 Bft)
14.11.2015 03:00 23,4 C 5,2 C 57 % 86 % 1026,2 hPa 0,0 l/m 7,6 km/h (2 Bft) W-SW 0,00 h 0,0 UV-I 0 W/m 3,0 C 3,7 C 12,7 km/h (3 Bft)
14.11.2015 04:00 23,3 C 4,8 C 57 % 87 % 1026,5 hPa 0,0 l/m 5,4 km/h (1 Bft) W-SW 0,00 h 0,0 UV-I 0 W/m 2,9 C 4,1 C 10,7 km/h (2 Bft)
14.11.2015 05:00 23,3 C 4,6 C 57 % 87 % 1027,0 hPa 0,0 l/m 3,9 km/h (1 Bft) W-SW 0,00 h 0,0 UV-I 0 W/m 2,6 C 4,3 C 8,8 km/h (2 Bft)
14.11.2015 06:00 23,2 C 4,1 C 57 % 86 % 1027,3 hPa 0,0 l/m 4,6 km/h (1 Bft) SW 0,00 h 0,0 UV-I 0 W/m 2,1 C 3,7 C 9,5 km/h (2 Bft)
14.11.2015 07:00 23,5 C 3,6 C 58 % 86 % 1027,7 hPa 0,0 l/m 3,3 km/h (1 Bft) SW 0,00 h 0,0 UV-I 12 W/m 1,5 C 3,3 C 6,9 km/h (2 Bft)
14.11.2015 08:00 23,3 C 3,6 C 56 % 90 % 1027,7 hPa 0,0 l/m 5,5 km/h (1 Bft) SW 0,00 h 0,0 UV-I 61 W/m 2,2 C 2,4 C 10,1 km/h (2 Bft)
14.11.2015 09:00 23,7 C 5,1 C 56 % 89 % 1027,4 hPa 0,0 l/m 8,7 km/h (2 Bft) SW 0,27 h 0,5 UV-I 132 W/m 3,4 C 3,1 C 15,1 km/h (3 Bft)
14.11.2015 10:00 23,7 C 5,7 C 54 % 88 % 1026,9 hPa 0,0 l/m 10,1 km/h (2 Bft) W-SW 0,00 h 0,5 UV-I 79 W/m 3,8 C 2,8 C 16,8 km/h (3 Bft)
14.11.2015 11:00 23,8 C 6,6 C 52 % 83 % 1026,5 hPa 0,0 l/m 14,6 km/h (3 Bft) W 0,23 h 0,8 UV-I 112 W/m 3,9 C 1,4 C 23,4 km/h (4 Bft)
14.11.2015 12:00 23,6 C 7,3 C 51 % 76 % 1026,5 hPa 0,0 l/m 12,8 km/h (3 Bft) W 0,10 h 0,7 UV-I 118 W/m 3,3 C 3,3 C 20,0 km/h (4 Bft)
14.11.2015 13:00 23,7 C 7,7 C 51 % 72 % 1026,2 hPa 0,0 l/m 11,3 km/h (2 Bft) W-SW 0,00 h 0,6 UV-I 79 W/m 2,9 C 4,4 C 18,8 km/h (3 Bft)
14.11.2015 14:00 23,7 C 7,6 C 50 % 73 % 1025,9 hPa 0,0 l/m 11,7 km/h (2 Bft) W-SW 0,00 h 0,0 UV-I 57 W/m 3,0 C 4,1 C 18,4 km/h (3 Bft)
14.11.2015 15:00 23,4 C 7,1 C 50 % 79 % 1025,9 hPa 0,0 l/m 9,1 km/h (2 Bft) W-SW 0,00 h 0,0 UV-I 21 W/m 3,7 C 4,8 C 15,0 km/h (3 Bft)
14.11.2015 16:00 23,5 C 7,1 C 51 % 80 % 1025,5 hPa 0,0 l/m 6,3 km/h (2 Bft) W-SW 0,00 h 0,0 UV-I 5 W/m 3,8 C 6,1 C 11,1 km/h (2 Bft)
14.11.2015 17:00 23,5 C 6,6 C 52 % 85 % 1025,3 hPa 0,0 l/m 8,4 km/h (2 Bft) W-SW 0,00 h 0,0 UV-I 0 W/m 4,3 C 4,8 C 14,0 km/h (3 Bft)
14.11.2015 18:00 23,7 C 6,1 C 52 % 89 % 1024,9 hPa 0,0 l/m 11,0 km/h (2 Bft) W-SW 0,00 h 0,0 UV-I 0 W/m 4,5 C 2,8 C 18,0 km/h (3 Bft)
14.11.2015 19:00 23,8 C 6,0 C 53 % 90 % 1024,7 hPa 0,2 l/m 9,4 km/h (2 Bft) W-SW 0,00 h 0,0 UV-I 0 W/m 4,5 C 3,6 C 15,6 km/h (3 Bft)
14.11.2015 20:00 24,0 C 5,7 C 53 % 92 % 1024,0 hPa 0,0 l/m 7,1 km/h (2 Bft) SW 0,00 h 0,0 UV-I 0 W/m 4,5 C 4,5 C 13,1 km/h (3 Bft)
14.11.2015 21:00 23,9 C 5,4 C 52 % 93 % 1023,5 hPa 0,2 l/m 4,4 km/h (1 Bft) SW 0,00 h 0,0 UV-I 0 W/m 4,4 C 5,0 C 8,7 km/h (2 Bft)
14.11.2015 22:00 23,5 C 5,3 C 53 % 93 % 1022,9 hPa 0,2 l/m 5,5 km/h (1 Bft) SW 0,00 h 0,0 UV-I 0 W/m 4,2 C 4,7 C 10,6 km/h (2 Bft)
14.11.2015 23:00 23,3 C 5,2 C 53 % 93 % 1021,9 hPa 0,0 l/m 5,4 km/h (1 Bft) SW 0,00 h 0,0 UV-I 0 W/m 4,1 C 4,4 C 10,7 km/h (2 Bft)
15.11.2015 00:00 23,1 C 5,2 C 53 % 92 % 1021,3 hPa 0,2 l/m 4,2 km/h (1 Bft) SW 0,00 h 0,0 UV-I 0 W/m 4,0 C 5,1 C 9,3 km/h (2 Bft)
15.11.2015 01:00 23,1 C 5,0 C 53 % 92 % 1020,4 hPa 0,0 l/m 2,0 km/h (1 Bft) S 0,00 h 0,0 UV-I 0 W/m 3,9 C 5,0 C 5,6 km/h (1 Bft)
15.11.2015 02:00 22,9 C 5,0 C 53 % 92 % 1019,5 hPa 0,0 l/m 6,8 km/h (2 Bft) SW 0,00 h 0,0 UV-I 0 W/m 3,9 C 3,7 C 12,5 km/h (3 Bft)
15.11.2015 03:00 22,9 C 5,0 C 53 % 93 % 1018,2 hPa 0,0 l/m 9,4 km/h (2 Bft) SW 0,00 h 0,0 UV-I 0 W/m 4,0 C 2,6 C 16,1 km/h (3 Bft)
15.11.2015 04:00 23,1 C 5,1 C 53 % 94 % 1017,1 hPa 0,2 l/m 11,4 km/h (2 Bft) SW 0,00 h 0,0 UV-I 0 W/m 4,3 C 1,3 C 18,4 km/h (3 Bft)
15.11.2015 05:00 23,2 C 5,4 C 53 % 95 % 1016,5 hPa 0,4 l/m 9,2 km/h (2 Bft) SW 0,00 h 0,0 UV-I 0 W/m 4,6 C 3,0 C 15,3 km/h (3 Bft)
15.11.2015 06:00 23,4 C 5,8 C 54 % 96 % 1015,5 hPa 0,2 l/m 7,8 km/h (2 Bft) SW 0,00 h 0,0 UV-I 0 W/m 5,1 C 4,2 C 13,6 km/h (3 Bft)
15.11.2015 07:00 23,6 C 6,7 C 55 % 96 % 1014,7 hPa 0,4 l/m 11,6 km/h (2 Bft) W-SW 0,00 h 0,0 UV-I 0 W/m 6,1 C 3,2 C 19,3 km/h (3 Bft)
15.11.2015 08:00 23,7 C 7,2 C 55 % 95 % 1014,1 hPa 0,4 l/m 9,5 km/h (2 Bft) SW 0,00 h 0,0 UV-I 5 W/m 6,5 C 4,9 C 15,9 km/h (3 Bft)
15.11.2015 09:00 23,7 C 7,5 C 56 % 96 % 1013,7 hPa 0,4 l/m 10,6 km/h (2 Bft) SW 0,00 h 0,0 UV-I 6 W/m 6,9 C 4,7 C 18,4 km/h (3 Bft)
15.11.2015 10:00 23,8 C 8,1 C 56 % 95 % 1013,4 hPa 0,6 l/m 12,9 km/h (3 Bft) SW 0,00 h 0,0 UV-I 10 W/m 7,3 C 4,0 C 21,4 km/h (4 Bft)
15.11.2015 11:00 23,8 C 8,3 C 55 % 95 % 1013,3 hPa 0,2 l/m 14,5 km/h (3 Bft) SW 0,00 h 0,0 UV-I 15 W/m 7,5 C 3,4 C 24,2 km/h (4 Bft)
15.11.2015 12:00 24,0 C 8,6 C 55 % 94 % 1013,0 hPa 0,0 l/m 16,9 km/h (3 Bft) W-SW 0,00 h 0,0 UV-I 22 W/m 7,7 C 2,7 C 27,3 km/h (4 Bft)
15.11.2015 13:00 24,0 C 9,0 C 53 % 93 % 1013,1 hPa 0,0 l/m 16,5 km/h (3 Bft) SW 0,00 h 0,0 UV-I 15 W/m 7,8 C 3,4 C 26,0 km/h (4 Bft)
15.11.2015 14:00 24,0 C 9,3 C 52 % 92 % 1012,9 hPa 0,0 l/m 10,7 km/h (2 Bft) SW 0,00 h 0,0 UV-I 8 W/m 8,0 C 6,4 C 17,5 km/h (3 Bft)
15.11.2015 15:00 23,3 C 9,7 C 51 % 91 % 1012,6 hPa 0,0 l/m 9,1 km/h (2 Bft) SW 0,00 h 0,0 UV-I 5 W/m 8,3 C 7,7 C 16,2 km/h (3 Bft)
15.11.2015 16:00 23,6 C 10,1 C 52 % 90 % 1012,7 hPa 0,0 l/m 10,0 km/h (2 Bft) W-SW 0,00 h 0,0 UV-I 0 W/m 8,5 C 7,8 C 17,0 km/h (3 Bft)
15.11.2015 17:00 23,9 C 10,1 C 52 % 90 % 1013,1 hPa 0,0 l/m 9,8 km/h (2 Bft) W-SW 0,00 h 0,0 UV-I 0 W/m 8,6 C 7,9 C 16,3 km/h (3 Bft)
15.11.2015 18:00 24,2 C 10,1 C 53 % 91 % 1013,5 hPa 0,0 l/m 10,5 km/h (2 Bft) W-SW 0,00 h 0,0 UV-I 0 W/m 8,7 C 7,4 C 17,8 km/h (3 Bft)
15.11.2015 19:00 24,1 C 10,1 C 54 % 90 % 1014,0 hPa 0,2 l/m 13,9 km/h (3 Bft) W-SW 0,00 h 0,0 UV-I 0 W/m 8,6 C 6,0 C 21,7 km/h (4 Bft)
15.11.2015 20:00 24,2 C 10,2 C 55 % 89 % 1014,1 hPa 0,0 l/m 18,7 km/h (3 Bft) W-SW 0,00 h 0,0 UV-I 0 W/m 8,5 C 4,1 C 30,2 km/h (5 Bft)
15.11.2015 21:00 24,1 C 10,3 C 55 % 89 % 1014,6 hPa 0,0 l/m 17,4 km/h (3 Bft) W 0,00 h 0,0 UV-I 0 W/m 8,5 C 4,6 C 27,3 km/h (4 Bft)
15.11.2015 22:00 24,0 C 10,1 C 55 % 90 % 1015,0 hPa 0,0 l/m 14,3 km/h (3 Bft) W 0,00 h 0,0 UV-I 0 W/m 8,6 C 5,8 C 23,2 km/h (4 Bft)
15.11.2015 23:00 23,6 C 10,1 C 55 % 89 % 1015,5 hPa 0,0 l/m 13,0 km/h (3 Bft) W 0,00 h 0,0 UV-I 0 W/m 8,5 C 6,3 C 20,1 km/h (4 Bft)
Min-Datum _ 12.11.15 13.11.15 14.11.15 14.11.15 15.11.15 - 09.11.15 - - - - 13.11.15 14.11.15 09.11.15
_ Min-Zeit 14:43 06:57 11:36 13:25 15:41 - 00:00 - - - - 06:57 11:16 00:00
Minimum _ 22,4 C 2,2 C 46 % 70 % 1012,2 hPa - 0,0 km/h (0 Bft) - - - - 1,2 C -3,4 C 0,0 km/h (0 Bft)
Max-Datum _ 11.11.15 09.11.15 11.11.15 09.11.15 12.11.15 13.11.15 13.11.15 - 09.11.15 14.11.15 14.11.15 09.11.15 09.11.15 13.11.15
_ Max-Zeit 21:56 14:35 09:26 01:33 11:29 23:19 23:19 - 13:19 11:29 11:37 13:22 14:49 23:18
Maximum _ 24,8 C 15,3 C 59 % 98 % 1028,3 hPa 3,2 l/m 30,6 km/h
W (5 Bft)
- 0,02 h 1,3 UV-I 366 W/m 12,7 C 15,3 C 51,5 km/h
W (7 Bft)
Durchschnitt _ 23,8 C 9,3 C 55 % 89 % 1023,3 hPa #7,2 l/m 5,2 km/h (1 Bft) W-SW #50 min. 0,5 UV-I 41 W/m 7,5 C 8,3 C 9,7 km/h (2 Bft)